GW6591 Weather Reports


time (UTC)temp
F
wind
direction
speed
knots
gust
knots
rain 1hr
in
rain 24hr
in
rain mn
in
humidity
%
barometer
mb
20260906232609 66 301 7.8 13.0 0.00 0.00 0.00 67 1014.6
20260906232109 67 317 10.4 13.0 0.00 0.00 0.00 67 1014.6
20260906231609 66 306 10.4 12.2 0.00 0.00 0.00 69 1014.6
20260906231109 66 306 10.4 13.0 0.00 0.00 0.00 69 1014.7
20260906230609 67 289 8.7 12.2 0.00 0.00 0.00 66 1014.9
20260906230108 67 309 8.7 12.2 0.00 0.00 0.00 66 1014.9
20260906225608 67 314 6.1 7.8 0.00 0.00 0.00 67 1014.9
20260906224608 66 346 7.0 10.4 0.00 0.00 0.00 67 1014.9
20260906224108 66 330 7.8 11.3 0.00 0.00 0.00 68 1014.9
20260906223608 66 329 7.8 10.4 0.00 0.00 0.00 67 1014.9
20260906223108 66 309 8.7 11.3 0.00 0.00 0.00 67 1015.1
20260906222609 66 316 7.0 10.4 0.00 0.00 0.00 67 1014.9
20260906222109 67 323 5.2 7.8 0.00 0.00 0.00 66 1014.9
20260906221609 67 313 6.1 8.7 0.00 0.00 0.00 65 1015.3
20260906221108 67 301 4.3 7.8 0.00 0.00 0.00 65 1015.3
20260906220608 67 328 6.1 7.8 0.00 0.00 0.00 65 1015.0
20260906220109 67 350 5.2 7.8 0.00 0.00 0.00 65 1014.9
20260906215109 67 332 4.3 7.0 0.00 0.00 0.00 65 1014.9
20260906214608 67 340 6.1 7.8 0.00 0.00 0.00 65 1015.1
20260906214108 67 352 5.2 8.7 0.00 0.00 0.00 65 1014.9
20260906213608 67 8 5.2 8.7 0.00 0.00 0.00 65 1014.9
20260906213108 66 352 2.6 6.1 0.00 0.00 0.00 64 1014.9
20260906212108 66 324 5.2 6.1 0.00 0.00 0.00 64 1015.3
20260906211109 66 336 4.3 5.2 0.00 0.00 0.00 65 1015.3
20260906210608 66 336 4.3 5.2 0.00 0.00 0.00 65 1014.9
20260906210108 65 10 2.6 6.1 0.00 0.00 0.00 65 1015.2
20260906205609 65 40 4.3 6.1 0.00 0.00 0.00 65 1015.2
20260906205108 65 351 1.7 6.1 0.00 0.00 0.00 64 1015.3
20260906204609 65 41 5.2 7.0 0.00 0.00 0.00 64 1015.3
20260906204107 65 48 4.3 7.0 0.00 0.00 0.00 64 1015.3
20260906203608 65 355 2.6 7.0 0.00 0.00 0.00 65 1015.3
20260906202608 65 21 5.2 7.0 0.00 0.00 0.00 64 1015.6
20260906202108 65 11 4.3 7.8 0.00 0.00 0.00 65 1015.3
20260906201608 65 20 4.3 6.1 0.00 0.00 0.00 65 1015.6
20260906201108 65 20 1.7 4.3 0.00 0.00 0.00 67 1015.6
20260906200608 65 8 1.7 2.6 0.00 0.00 0.00 66 1015.6
20260906200108 65 37 1.7 5.2 0.00 0.00 0.00 67 1015.6
20260906195607 65 65 5.2 6.1 0.00 0.00 0.00 66 1015.6
20260906195108 65 77 5.2 7.0 0.00 0.00 0.00 66 1015.6
20260906194607 65 7 4.3 7.0 0.00 0.00 0.00 67 1016.0
20260906194108 64 31 1.7 7.0 0.00 0.00 0.00 66 1016.0
20260906193608 65 8 4.3 6.1 0.00 0.00 0.00 66 1015.6
20260906192109 64 43 7.0 10.4 0.00 0.00 0.00 68 1015.6
20260906191607 64 43 6.1 10.4 0.00 0.00 0.00 68 1015.6
20260906190608 64 51 7.8 10.4 0.00 0.00 0.00 69 1015.7
20260906190108 63 347 6.1 10.4 0.00 0.00 0.00 69 1016.0
20260906185608 63 54 6.1 10.4 0.00 0.00 0.00 70 1016.0
20260906185108 63 22 7.8 12.2 0.00 0.00 0.00 71 1016.0
20260906184608 63 53 8.7 11.3 0.00 0.00 0.00 71 1016.0
20260906184107 63 29 8.7 11.3 0.00 0.00 0.00 71 1016.0
20260906183608 62 46 9.6 11.3 0.00 0.00 0.00 72 1016.0
20260906182608 62 34 7.0 10.4 0.00 0.00 0.00 72 1016.3
20260906182107 61 26 6.1 8.7 0.00 0.00 0.00 74 1016.3
20260906180607 60 15 6.1 11.3 0.00 0.00 0.00 78 1016.6
20260906180108 60 24 6.1 13.0 0.00 0.00 0.00 80 1016.3
20260906175608 59 71 10.4 13.9 0.00 0.00 0.00 90 1015.6
20260906175111 58 41 11.3 14.8 0.00 0.00 0.00 91 1015.6
20260906174607 58 57 8.7 13.9 0.00 0.00 0.00 92 1016.6
20260906174108 57 34 7.8 10.4 0.00 0.00 0.00 91 1016.6
20260906173608 57 355 7.0 8.7 0.00 0.00 0.00 90 1016.6
20260906173108 57 324 6.1 10.4 0.00 0.00 0.00 89 1017.3
20260906172107 58 329 7.0 8.7 0.00 0.00 0.00 84 1017.7
20260906171108 58 308 6.1 7.8 0.00 0.00 0.00 83 1017.3
20260906170608 58 314 6.1 8.7 0.00 0.00 0.00 83 1017.3
20260906170107 58 312 7.8 8.7 0.00 0.00 0.00 83 1017.3
20260906165607 57 310 6.1 7.8 0.00 0.00 0.00 84 1017.3
20260906165108 57 311 5.2 7.0 0.00 0.00 0.00 84 1017.3
20260906164108 57 324 5.2 7.0 0.00 0.00 0.00 84 1017.7
20260906163608 57 304 5.2 7.8 0.00 0.00 0.00 84 1017.7
20260906163107 56 309 7.0 8.7 0.00 0.00 0.00 84 1017.7
20260906162608 56 316 6.1 10.4 0.00 0.00 0.00 84 1017.7
20260906162108 56 235 7.8 10.4 0.00 0.00 0.00 85 1017.3
20260906161607 56 332 7.8 10.4 0.00 0.00 0.00 85 1017.3
20260906161107 56 324 7.8 10.4 0.00 0.00 0.00 85 1017.7
20260906160607 56 337 7.8 10.4 0.00 0.00 0.00 86 1017.5
20260906160107 56 314 7.8 12.2 0.00 0.00 0.00 87 1017.6
20260906155607 55 307 10.4 12.2 0.00 0.00 0.00 87 1017.7
20260906155107 55 315 9.6 13.9 0.00 0.00 0.00 87 1017.7
20260906154607 55 313 9.6 13.9 0.00 0.00 0.00 87 1017.4
20260906154107 55 315 10.4 12.2 0.00 0.00 0.00 87 1017.7
20260906153607 55 301 10.4 13.0 0.00 0.00 0.00 87 1017.7
20260906153107 55 312 9.6 14.8 0.00 0.00 0.00 88 1017.9
20260906152108 55 329 10.4 15.6 0.00 0.00 0.00 87 1018.0
20260906151606 55 325 7.8 14.8 0.00 0.00 0.00 87 1018.2
20260906151107 56 319 11.3 13.9 0.00 0.00 0.00 85 1018.3
20260906150607 57 311 8.7 13.9 0.00 0.00 0.00 84 1018.3
20260906150107 57 311 8.7 13.0 0.00 0.00 0.00 83 1018.3
20260906145607 57 301 8.7 14.8 0.00 0.00 0.00 83 1018.3
20260906145107 57 315 11.3 14.8 0.00 0.00 0.00 82 1018.3
20260906144607 58 301 9.6 13.0 0.00 0.00 0.00 82 1018.3
20260906144108 59 289 10.4 14.8 0.00 0.00 0.00 80 1018.3
20260906143606 60 284 6.1 8.7 0.00 0.00 0.00 81 1018.3
20260906143107 60 278 4.3 6.1 0.00 0.00 0.00 80 1018.3
20260906142607 60 276 2.6 4.3 0.00 0.00 0.00 81 1018.0
20260906142106 60 270 1.7 4.3 0.00 0.00 0.00 81 1018.3
20260906141106 60 300 2.6 4.3 0.00 0.00 0.00 81 1018.0
20260906140607 60 291 2.6 4.3 0.00 0.00 0.00 81 1017.7
20260906140107 60 32 2.6 4.3 0.00 0.00 0.00 81 1017.7
20260906135607 60 308 1.7 2.6 0.00 0.00 0.00 81 1017.8
20260906135106 60 4 0.9 2.6 0.00 0.00 0.00 81 1017.7
20260906134607 60 334 1.7 5.2 0.00 0.00 0.00 81 1018.0
20260906134107 60 324 3.5 5.2 0.00 0.00 0.00 81 1018.0
20260906133607 60 331 3.5 5.2 0.00 0.00 0.00 81 1017.8
20260906132607 59 41 4.3 5.2 0.00 0.00 0.00 81 1017.7
20260906132107 59 45 4.3 7.0 0.00 0.00 0.00 82 1017.7
20260906131606 59 22 5.2 7.8 0.00 0.00 0.00 82 1017.4
20260906131107 59 35 4.3 7.0 0.00 0.00 0.00 82 1017.7
20260906130606 59 19 5.2 8.7 0.00 0.00 0.00 82 1017.7
20260906130107 59 33 6.1 8.7 0.00 0.00 0.00 82 1017.9
20260906125606 58 60 5.2 7.8 0.00 0.00 0.00 82 1017.7
20260906125106 58 15 3.5 6.1 0.00 0.00 0.00 83 1017.9
20260906124607 58 350 2.6 5.2 0.00 0.00 0.00 83 1018.0
20260906124107 58 330 5.2 6.1 0.00 0.00 0.00 83 1018.0
20260906123607 58 339 5.2 8.7 0.00 0.00 0.00 83 1018.0
20260906122607 58 332 5.2 7.8 0.00 0.00 0.00 83 1018.0
20260906121607 58 354 8.7 11.3 0.00 0.00 0.00 83 1017.3
20260906121107 58 341 7.8 10.4 0.00 0.00 0.00 83 1017.3
20260906120607 58 358 7.8 11.3 0.00 0.00 0.00 83 1017.4
20260906120108 58 338 6.1 8.7 0.00 0.00 0.00 82 1017.7
20260906115607 58 339 7.8 8.7 0.00 0.00 0.00 82 1017.7
20260906115106 58 335 7.8 10.4 0.00 0.00 0.00 82 1017.7
20260906114607 58 334 7.0 8.7 0.00 0.00 0.00 82 1017.7
20260906114107 58 338 6.1 8.7 0.00 0.00 0.00 81 1017.7
20260906113606 59 327 6.1 8.7 0.00 0.00 0.00 81 1017.7
20260906112106 59 349 7.0 11.3 0.00 0.00 0.00 80 1017.9
20260906111606 59 349 7.8 11.3 0.00 0.00 0.00 80 1017.4
20260906111106 59 347 7.0 10.4 0.00 0.00 0.00 80 1017.6
20260906110606 59 3 6.1 10.4 0.00 0.00 0.00 80 1017.7
20260906110107 58 350 5.2 8.7 0.00 0.00 0.00 81 1017.7
20260906105606 58 347 7.8 12.2 0.00 0.00 0.00 81 1018.0
20260906105106 58 357 6.1 8.7 0.00 0.00 0.00 81 1018.0
20260906104606 58 353 6.1 11.3 0.00 0.00 0.00 81 1018.0
20260906104105 58 350 7.8 10.4 0.00 0.00 0.00 81 1018.0
20260906103606 58 329 7.8 10.4 0.00 0.00 0.00 81 1017.9
20260906103106 58 333 7.8 12.2 0.00 0.00 0.00 81 1017.9
20260906102606 58 355 8.7 13.9 0.00 0.00 0.00 81 1017.8
20260906101606 58 348 12.2 15.6 0.00 0.00 0.00 81 1017.7
20260906100606 59 0 10.4 14.8 0.00 0.00 0.00 80 1018.0
20260906100106 58 340 10.4 15.6 0.00 0.00 0.00 80 1018.0
20260906095606 58 336 13.9 15.6 0.00 0.00 0.00 80 1018.0
20260906095106 59 345 8.7 17.4 0.00 0.00 0.00 80 1017.7
20260906094605 59 347 13.0 14.8 0.00 0.00 0.00 79 1017.7
20260906094106 59 334 13.0 17.4 0.00 0.00 0.00 79 1017.7
20260906093606 59 337 13.9 14.8 0.00 0.00 0.00 78 1017.7
20260906093106 59 0 10.4 12.2 0.00 0.00 0.00 78 1017.7
20260906092606 59 45 10.4 13.0 0.00 0.00 0.00 79 1017.7
20260906092106 59 341 8.7 12.2 0.00 0.00 0.00 79 1018.0
20260906091605 59 337 5.2 7.8 0.00 0.00 0.00 80 1018.0
20260906091107 59 330 6.1 10.4 0.00 0.00 0.00 80 1018.0
20260906090605 59 331 6.1 11.3 0.00 0.00 0.00 80 1018.3
20260906085605 59 313 4.3 7.0 0.00 0.00 0.00 80 1018.3
20260906085106 59 308 6.1 8.7 0.00 0.00 0.00 80 1018.5
20260906084605 59 312 7.8 10.4 0.00 0.00 0.00 79 1018.5
20260906084107 59 316 6.1 10.4 0.00 0.00 0.00 78 1018.7
20260906083605 59 326 7.0 7.8 0.00 0.00 0.00 77 1018.7
20260906083105 59 324 5.2 10.4 0.00 0.00 0.00 77 1018.7
20260906082606 59 324 5.2 11.3 0.00 0.00 0.00 77 1018.7
20260906082105 59 333 7.0 10.4 0.00 0.00 0.00 77 1018.7
20260906081105 59 336 4.3 8.7 0.00 0.00 0.00 79 1018.7
20260906080605 58 327 1.7 5.2 0.00 0.00 0.00 81 1018.8
20260906080105 57 316 1.7 2.6 0.00 0.00 0.00 82 1018.9
20260906075605 57 307 1.7 2.6 0.00 0.00 0.00 82 1018.7
20260906075105 57 305 1.7 1.7 0.00 0.00 0.00 82 1018.7
20260906074606 57 304 0.9 1.7 0.00 0.00 0.00 82 1018.9
20260906074105 57 296 1.7 7.0 0.00 0.00 0.00 81 1018.7
20260906073106 57 317 2.6 5.2 0.00 0.00 0.00 81 1018.8
20260906072605 58 332 4.3 7.0 0.00 0.00 0.00 79 1018.8
20260906072106 58 327 6.1 8.7 0.00 0.00 0.00 79 1018.9
20260906071605 59 328 7.0 7.8 0.00 0.00 0.00 78 1019.0
20260906071105 59 345 7.0 7.8 0.00 0.00 0.00 78 1018.7
20260906070605 58 336 7.0 7.8 0.00 0.00 0.00 78 1018.8
20260906070105 58 347 6.1 7.8 0.00 0.00 0.00 79 1019.0
20260906065605 58 329 6.1 8.7 0.00 0.00 0.00 80 1018.9
20260906065105 58 335 4.3 7.8 0.00 0.00 0.00 81 1019.0
20260906064606 58 314 2.6 7.8 0.00 0.00 0.00 80 1019.1
20260906064105 58 316 5.2 7.0 0.00 0.00 0.00 80 1019.1
20260906063605 59 306 5.2 6.1 0.00 0.00 0.00 79 1019.3
20260906063106 59 306 5.2 7.8 0.00 0.00 0.00 79 1019.3
20260906062605 59 319 5.2 6.1 0.00 0.00 0.00 78 1019.6
20260906061605 59 319 5.2 8.7 0.00 0.00 0.00 78 1019.5
20260906061105 58 322 6.1 8.7 0.00 0.00 0.00 78 1019.3
20260906060605 58 294 6.1 7.0 0.00 0.00 0.00 78 1019.3
20260906060105 58 294 6.1 7.8 0.00 0.00 0.00 78 1019.3
20260906055606 58 309 7.8 8.7 0.00 0.00 0.00 77 1019.3
20260906054105 59 339 8.7 10.4 0.00 0.00 0.00 75 1019.2
20260906053105 59 348 10.4 12.2 0.00 0.00 0.00 74 1019.0
20260906052605 59 351 10.4 11.3 0.00 0.00 0.00 74 1019.0
20260906051605 59 334 5.2 7.8 0.00 0.00 0.00 74 1018.7
20260906050104 59 355 7.0 12.2 0.00 0.00 0.00 73 1018.7
20260906045105 59 351 11.3 13.9 0.00 0.00 0.00 73 1018.7
20260906044605 60 1 11.3 13.9 0.00 0.00 0.00 72 1018.3
20260906044105 60 2 10.4 17.4 0.00 0.00 0.00 72 1018.7
20260906043605 60 338 10.4 13.0 0.00 0.00 0.00 73 1018.8
20260906042605 60 314 10.4 14.8 0.00 0.00 0.00 73 1018.9
20260906042105 59 329 10.4 14.8 0.00 0.00 0.00 73 1018.2
20260906041605 59 347 11.3 13.9 0.00 0.00 0.00 73 1018.2
20260906041105 60 345 12.2 13.9 0.00 0.00 0.00 72 1017.7
20260906040605 60 327 13.0 17.4 0.00 0.00 0.00 70 1017.7
20260906040105 60 331 11.3 20.0 0.00 0.00 0.00 70 1017.7
20260906035604 60 329 13.9 20.0 0.00 0.00 0.00 69 1017.7
20260906035105 60 341 12.2 17.4 0.00 0.00 0.00 68 1017.8
20260906034604 60 357 11.3 15.6 0.00 0.00 0.00 68 1018.0
20260906034105 61 352 13.0 14.8 0.00 0.00 0.00 66 1018.2
20260906033605 61 352 13.0 18.2 0.00 0.00 0.00 66 1018.0
20260906033104 61 351 13.0 18.2 0.00 0.00 0.00 65 1018.2
20260906032605 62 326 11.3 13.0 0.00 0.00 0.00 62 1018.3
20260906032104 62 326 11.3 14.8 0.00 0.00 0.00 62 1018.3
20260906031604 62 332 11.3 17.4 0.00 0.00 0.00 62 1018.0
20260906031105 62 333 15.6 17.4 0.00 0.00 0.00 62 1018.3
20260906030604 62 342 10.4 13.9 0.00 0.00 0.00 61 1018.8
20260906024105 62 14 14.8 20.0 0.00 0.00 0.00 62 1016.8
20260906023105 63 24 13.0 17.4 0.00 0.00 0.00 61 1017.0
20260906022106 63 22 12.2 17.4 0.00 0.00 0.00 61 1016.8
20260906020604 64 56 7.8 13.0 0.00 0.00 0.00 58 1016.6
20260906020104 64 357 8.7 14.8 0.00 0.00 0.00 58 1016.6
20260906015604 65 13 12.2 15.6 0.00 0.00 0.00 56 1016.6
20260906015104 65 15 10.4 15.6 0.00 0.00 0.00 56 1016.6
20260906014604 66 10 11.3 12.2 0.00 0.00 0.00 53 1016.6
20260906014104 66 10 11.3 12.2 0.00 0.00 0.00 53 1016.6
20260906013604 66 3 8.7 12.2 0.00 0.00 0.00 53 1016.6
20260906013104 67 8 7.8 12.2 0.00 0.00 0.00 52 1016.6
20260906012604 67 24 8.7 12.2 0.00 0.00 0.00 51 1016.8
20260906011604 68 8 11.3 14.8 0.00 0.00 0.00 50 1016.6
20260906010604 69 21 11.3 14.8 0.00 0.00 0.00 48 1016.6
20260906010104 69 4 8.7 13.0 0.00 0.00 0.00 47 1016.6
20260906005604 70 7 10.4 13.9 0.00 0.00 0.00 46 1017.0
20260906005104 70 2 8.7 13.0 0.00 0.00 0.00 46 1017.0
20260906004604 70 2 10.4 13.0 0.00 0.00 0.00 46 1017.0
20260906004104 70 7 10.4 14.8 0.00 0.00 0.00 45 1016.8
20260906003603 71 357 8.7 13.9 0.00 0.00 0.00 43 1016.6
20260906003104 73 17 12.2 17.4 0.00 0.00 0.00 42 1016.8
20260906002104 73 17 11.3 14.8 0.00 0.00 0.00 39 1017.0
20260906001604 74 347 11.3 13.9 0.00 0.00 0.00 38 1016.8
20260906001103 74 15 11.3 14.8 0.00 0.00 0.00 38 1016.6
20260906000604 74 3 11.3 14.8 0.00 0.00 0.00 38 1016.6
20260906000104 74 349 11.3 15.6 0.00 0.00 0.00 38 1017.0
20260905235603 73 18 8.7 13.0 0.00 0.00 0.00 38 1017.0
20260905235109 73 8 8.7 13.9 0.00 0.00 0.00 38 1017.0
20260905234609 74 349 8.7 14.8 0.00 0.00 0.00 38 1017.0
20260905234109 76 354 10.4 13.9 0.00 0.00 0.00 36 1017.0
20260905233608 74 355 11.3 13.9 0.00 0.00 0.00 38 1017.0
20260905233109 75 338 5.2 6.1 0.00 0.00 0.00 32 1017.0